Weather Roundup
Issued by NWS

Home | Current Version | Previous Version | Graphics & Text | Print | Product List | Glossary Off
Versions: 1 2 3 4 5 6 7 8 9 10 11 12 13 14 15 16 17 18 19 20 21 22 23 24 25 26 27 28 29 30 31 32 33 34 35 36 37 38 39 40 41 42 43 44 45 46 47 48 49 50

947
NZUS93 KARX 230059
HRRWXR

CURRENT HOURLY OBSERVATIONS ACROSS
MUCH OF THE UPPER MISSISSIPPI VALLEY
NATIONAL WEATHER SERVICE LA CROSSE WI
700 PM CST SUN JAN 22 2017


...SOUTHEAST MINNESOTA...


CITY           SKY/WX    TMP DP  RH WIND       PRES   REMARKS
ROCHESTER      CLOUDY    34  34 100 NW7       29.75R FOG     WCI  28
ROCHESTER/MAYO CLOUDY    36  36 100 W8        29.75S WCI  29
WINONA         CLOUDY    36  36 100 CALM      29.76R FOG
AUSTIN         FOG       36  34  93 W7        29.76R VSB 1   WCI  30
ALBERT LEA     CLOUDY    36  36 100 NW5       29.77R FOG     WCI  32
DODGE CENTER   FOG       34  34 100 CALM      29.75R VSB 1
PRESTON        CLOUDY    33  32  96 NW8       29.75S FOG     WCI  26
OWATONNA       CLOUDY    36  34  93 W8        29.77R FOG     WCI  29
FARIBAULT      NOT AVBL
$$

...ELSEWHERE IN MINNESOTA...


CITY           SKY/WX    TMP DP  RH WIND       PRES   REMARKS
MINNEAPOLIS    CLOUDY    37  34  89 W6        29.76S WCI  32
INTNL FALLS    FOG       34  32  92 CALM      29.72S VSB 1
DULUTH         CLOUDY    35  34  96 NW5       29.70S WCI  31
RED WING       CLOUDY    36  34  93 CALM      29.75S FOG
REDWOOD FALLS  CLOUDY    33  29  85 NW8       29.80R FOG     WCI  26
MANKATO        CLOUDY    33  33 100 NW9       29.79R FOG     WCI  25
WORTHINGTON    CLOUDY    29  28  96 NW15      29.82R FOG     WCI  18
FAIRMONT       CLOUDY    34  33  96 NW9       29.81R WCI  27
$$

...SOUTHWEST WISCONSIN...


CITY           SKY/WX    TMP DP  RH WIND       PRES   REMARKS
LA CROSSE      CLOUDY    39  34  82 NW6       29.74R WCI  35
PRAIRIE DU CHI CLOUDY    37  35  92 W3        29.73S FOG
BOSCOBEL       CLOUDY    39  36  89 CALM      29.74R
LONE ROCK      NOT AVBL
PLATTEVILLE    CLOUDY    37  37 100 NW7       29.70S WCI  31
FORT MC COY    CLOUDY    35  35 100 W3        29.74R FOG
CAMP DOUGLAS   FOG       36  36 100 W6        29.71R VSB 1   WCI  31
MAUSTON-NEW LI CLOUDY    36  36  99 W6        29.70R FOG     WCI  31
VIROQUA        CLOUDY    34  34 100 NW9       29.71R VSB 1/2 WCI  27
WIS DELLS      CLOUDY    36  36  99 NW3       29.70R
$$

...ELSEWHERE IN WISCONSIN...


CITY           SKY/WX    TMP DP  RH WIND       PRES   REMARKS
MILWAUKEE      CLOUDY    42  36  79 NW6       29.67S
MADISON        CLOUDY    38  36  92 NW6       29.70R WCI  33
GREEN BAY      FOG       37  37 100 S3        29.69R VSB 1/4
EAU CLAIRE     CLOUDY    36  34  93 CALM      29.73R
BLACK RVR FLS  CLOUDY    36  36 100 CALM      29.73R FOG
MEDFORD        FOG       34  33  99 NW3       29.69R VSB 1/2
WAUSAU         CLOUDY    36  35  96 NW7       29.67S WCI  30
WIS RAPIDS     CLOUDY    36  35  96 NW7       29.71R WCI  30
MARSHFIELD     FOG       34  33  96 NW6       29.68S VSB 1/2 WCI  29
RICE LAKE      FOG       35  35  99 CALM      29.74R VSB 1/2
$$

...NORTHEAST IOWA...


CITY           SKY/WX    TMP DP  RH WIND       PRES   REMARKS
WATERLOO       CLOUDY    35  33  92 NW9       29.76R WCI  28
DUBUQUE        CLOUDY    36  35  96 N13       29.70S FOG     WCI  27
DECORAH        CLOUDY    36  34  93 NW6       29.73S FOG     WCI  31
MASON CITY     FOG       34  34 100 NW8       29.78S VSB 1   WCI  27
CHARLES CITY   CLOUDY    34  34 100 NW9       29.76S WCI  26
OELWEIN        CLOUDY    34  34 100 NW10      29.75R FOG     WCI  26
$$

...ELSEWHERE IN IOWA...


CITY           SKY/WX    TMP DP  RH WIND       PRES   REMARKS
DES MOINES     CLOUDY    38  36  92 N12       29.79R WCI  30
IOWA CITY      CLOUDY    39  35  86 NW12      29.74R WCI  32
FORT DODGE     CLOUDY    36  34  93 NW5       29.80S WCI  32
MARSHALLTOWN   CLOUDY    37  36  96 NW9       29.77R WCI  30
CEDAR RAPIDS   CLOUDY    36  34  92 NW13      29.72S WCI  27
$$

...NORTHERN ILLINOIS...


CITY           SKY/WX    TMP DP  RH WIND       PRES   REMARKS
CHICAGO-OHARE  CLOUDY    41  38  89 N7        29.64F
CHICAGO-MIDWAY CLOUDY    43  36  76 N16G23    29.63F
MOLINE         CLOUDY    38  34  85 NW7       29.69R WCI  33
ROCKFORD       CLOUDY    36  33  89 NE7       29.69R FOG     WCI  30
PEORIA         CLOUDY    40  36  86 VRB6      29.65S
$$

NOTE: "FAIR" INDICATES FEW OR NO CLOUDS BELOW 12,000 FEET WITH NO
SIGNIFICANT WEATHER AND/OR OBSTRUCTIONS TO VISIBILITY. WIND
SPEEDS ARE IN MILES-PER-HOUR.




USA.gov is the U.S. government's official web portal to all federal, state and local government web resources and services.